Time,TemperatureF,DewpointF,PressureIn,WindDirection,WindDirectionDegrees,WindSpeedMPH,WindSpeedGustMPH,Humidity,HourlyPrecipIn,Conditions,Clouds,dailyrainin,SoftwareType,DateUTC
2013-01-28 00:07:00,42.2,42.2,29.99,South,189,0.0,2.0,100,0.00,,,0.00,Wunderground v.1.15,2013-01-28 08:07:00,
2013-01-28 00:12:00,42.2,42.2,29.99,South,189,0.0,0.0,100,0.00,,,0.00,Wunderground v.1.15,2013-01-28 08:12:00,
2013-01-28 00:22:00,42.2,42.2,30.00,South,189,0.0,0.0,100,0.00,,,0.00,Wunderground v.1.15,2013-01-28 08:22:00,
2013-01-28 00:32:00,42.2,42.2,30.00,South,189,0.0,0.0,100,0.00,,,0.00,Wunderground v.1.15,2013-01-28 08:32:00,
2013-01-28 00:42:00,42.2,42.2,30.00,South,184,0.0,0.0,100,0.00,,,0.00,Wunderground v.1.15,2013-01-28 08:42:00,
2013-01-28 00:52:00,42.2,42.2,30.00,South,181,0.0,0.0,100,0.00,,,0.00,Wunderground v.1.15,2013-01-28 08:52:00,
2013-01-28 00:57:00,42.2,42.2,30.00,South,176,0.0,0.0,100,0.00,,,0.00,Wunderground v.1.15,2013-01-28 08:57:00,
2013-01-28 01:07:00,42.2,42.2,30.00,South,176,0.0,0.0,100,0.00,,,0.00,Wunderground v.1.15,2013-01-28 09:07:00,
2013-01-28 01:12:00,42.2,42.2,30.00,South,175,0.0,0.0,100,0.00,,,0.00,Wunderground v.1.15,2013-01-28 09:12:00,
2013-01-28 01:22:00,42.2,42.2,30.00,South,174,0.0,0.0,100,0.00,,,0.00,Wunderground v.1.15,2013-01-28 09:22:00,
2013-01-28 01:32:00,42.1,42.1,30.01,South,174,0.0,0.0,100,0.00,,,0.00,Wunderground v.1.15,2013-01-28 09:32:00,
2013-01-28 01:37:00,42.1,42.1,30.01,South,174,0.0,0.0,100,0.00,,,0.00,Wunderground v.1.15,2013-01-28 09:37:00,
2013-01-28 01:47:00,42.1,42.1,30.01,South,174,0.0,0.0,100,0.00,,,0.00,Wunderground v.1.15,2013-01-28 09:47:00,
2013-01-28 01:57:00,42.1,42.1,30.01,South,174,0.0,0.0,100,0.00,,,0.00,Wunderground v.1.15,2013-01-28 09:57:00,
2013-01-28 02:02:00,42.1,42.1,30.01,South,174,0.0,2.0,100,0.00,,,0.00,Wunderground v.1.15,2013-01-28 10:02:00,
2013-01-28 02:12:00,41.9,41.9,30.01,South,174,0.0,0.0,100,0.00,,,0.00,Wunderground v.1.15,2013-01-28 10:12:00,
2013-01-28 02:17:00,41.9,41.9,30.02,South,174,0.0,0.0,100,0.00,,,0.00,Wunderground v.1.15,2013-01-28 10:17:00,
2013-01-28 02:27:00,41.9,41.9,30.02,South,174,0.0,0.0,100,0.00,,,0.00,Wunderground v.1.15,2013-01-28 10:27:00,
2013-01-28 02:37:00,41.9,41.9,30.02,South,174,0.0,0.0,100,0.00,,,0.00,Wunderground v.1.15,2013-01-28 10:37:00,
2013-01-28 02:42:00,42.1,42.1,30.02,South,174,0.0,0.0,100,0.00,,,0.00,Wunderground v.1.15,2013-01-28 10:42:00,
2013-01-28 02:52:00,41.9,41.9,30.02,SE,130,0.0,2.0,100,0.00,,,0.00,Wunderground v.1.15,2013-01-28 10:52:00,
2013-01-28 03:02:00,41.9,41.9,30.02,SE,130,0.0,0.0,100,0.00,,,0.00,Wunderground v.1.15,2013-01-28 11:02:00,
2013-01-28 03:12:00,42.1,42.1,30.02,SE,130,0.0,0.0,100,0.00,,,0.00,Wunderground v.1.15,2013-01-28 11:12:00,
2013-01-28 03:22:00,41.9,41.9,30.02,SE,131,0.0,1.0,100,0.00,,,0.00,Wunderground v.1.15,2013-01-28 11:22:00,
2013-01-28 03:32:00,41.8,41.8,30.02,SE,131,0.0,0.0,100,0.00,,,0.00,Wunderground v.1.15,2013-01-28 11:32:00,
2013-01-28 03:42:00,41.8,41.8,30.02,SE,131,0.0,0.0,100,0.00,,,0.00,Wunderground v.1.15,2013-01-28 11:42:00,
2013-01-28 03:52:00,41.8,41.8,30.03,SE,131,0.0,0.0,100,0.00,,,0.00,Wunderground v.1.15,2013-01-28 11:52:00,
2013-01-28 03:57:00,41.9,41.9,30.03,SE,131,0.0,0.0,100,0.00,,,0.00,Wunderground v.1.15,2013-01-28 11:57:00,
2013-01-28 04:07:00,41.8,41.8,30.03,SE,131,0.0,3.0,100,0.00,,,0.00,Wunderground v.1.15,2013-01-28 12:07:00,
2013-01-28 04:12:00,41.8,41.8,30.03,SE,131,0.0,0.0,100,0.00,,,0.00,Wunderground v.1.15,2013-01-28 12:12:00,
2013-01-28 04:22:00,41.8,41.8,30.02,SE,131,0.0,0.0,100,0.00,,,0.00,Wunderground v.1.15,2013-01-28 12:22:00,
2013-01-28 04:27:00,41.8,41.8,30.02,SE,131,0.0,0.0,100,0.00,,,0.00,Wunderground v.1.15,2013-01-28 12:27:00,
2013-01-28 04:37:00,41.8,41.8,30.03,SE,131,0.0,0.0,100,0.00,,,0.00,Wunderground v.1.15,2013-01-28 12:37:00,
2013-01-28 04:47:00,41.5,41.5,30.03,SE,131,0.0,0.0,100,0.00,,,0.00,Wunderground v.1.15,2013-01-28 12:47:00,
2013-01-28 04:57:00,41.6,41.6,30.03,SE,131,0.0,0.0,100,0.00,,,0.00,Wunderground v.1.15,2013-01-28 12:57:00,
2013-01-28 05:02:00,41.6,41.6,30.03,SE,130,0.0,0.0,100,0.00,,,0.00,Wunderground v.1.15,2013-01-28 13:02:00,
2013-01-28 05:07:00,41.6,41.6,30.03,SE,131,0.0,0.0,100,0.00,,,0.00,Wunderground v.1.15,2013-01-28 13:07:00,
2013-01-28 05:17:00,41.6,41.6,30.03,SE,131,0.0,0.0,100,0.00,,,0.00,Wunderground v.1.15,2013-01-28 13:17:00,
2013-01-28 05:27:00,41.6,41.6,30.03,SE,130,0.0,0.0,100,0.00,,,0.00,Wunderground v.1.15,2013-01-28 13:27:00,
2013-01-28 05:32:00,41.6,41.6,30.03,SE,131,0.0,0.0,100,0.00,,,0.00,Wunderground v.1.15,2013-01-28 13:32:00,
2013-01-28 05:42:00,41.6,41.6,30.03,SE,131,0.0,0.0,100,0.00,,,0.00,Wunderground v.1.15,2013-01-28 13:42:00,
2013-01-28 05:52:00,41.8,41.8,30.03,SE,131,0.0,0.0,100,0.00,,,0.00,Wunderground v.1.15,2013-01-28 13:52:00,
2013-01-28 05:57:00,41.8,41.8,30.03,SE,131,0.0,0.0,100,0.00,,,0.00,Wunderground v.1.15,2013-01-28 13:57:00,
2013-01-28 06:07:00,41.8,41.8,30.03,SE,131,0.0,0.0,100,0.00,,,0.00,Wunderground v.1.15,2013-01-28 14:07:00,
2013-01-28 06:12:00,41.9,41.9,30.03,SE,131,0.0,0.0,100,0.00,,,0.00,Wunderground v.1.15,2013-01-28 14:12:00,
2013-01-28 06:22:00,42.1,42.1,30.03,SE,130,0.0,0.0,100,0.00,,,0.00,Wunderground v.1.15,2013-01-28 14:22:00,
2013-01-28 06:32:00,42.1,42.1,30.04,SE,131,0.0,0.0,100,0.00,,,0.00,Wunderground v.1.15,2013-01-28 14:32:00,
2013-01-28 06:37:00,42.1,42.1,30.04,SE,130,0.0,0.0,100,0.00,,,0.00,Wunderground v.1.15,2013-01-28 14:37:00,
2013-01-28 06:47:00,42.1,42.1,30.05,SE,131,0.0,0.0,100,0.00,,,0.00,Wunderground v.1.15,2013-01-28 14:47:00,
2013-01-28 06:57:00,42.2,42.2,30.05,SE,131,0.0,0.0,100,0.00,,,0.00,Wunderground v.1.15,2013-01-28 14:57:00,
2013-01-28 07:07:00,42.2,42.2,30.05,SE,130,0.0,0.0,100,0.00,,,0.00,Wunderground v.1.15,2013-01-28 15:07:00,
2013-01-28 07:17:00,42.2,42.2,30.05,SE,130,0.0,0.0,100,0.00,,,0.00,Wunderground v.1.15,2013-01-28 15:17:00,
2013-01-28 07:27:00,42.2,42.2,30.05,SE,131,0.0,0.0,100,0.00,,,0.00,Wunderground v.1.15,2013-01-28 15:27:00,
2013-01-28 07:37:00,42.3,42.3,30.05,SE,131,0.0,0.0,100,0.00,,,0.00,Wunderground v.1.15,2013-01-28 15:37:00,
2013-01-28 07:42:00,42.3,42.3,30.05,SE,130,0.0,0.0,100,0.00,,,0.00,Wunderground v.1.15,2013-01-28 15:42:00,
2013-01-28 07:52:00,42.5,42.5,30.05,SE,131,0.0,0.0,100,0.00,,,0.00,Wunderground v.1.15,2013-01-28 15:52:00,
2013-01-28 08:02:00,42.5,42.5,30.05,SE,130,0.0,0.0,100,0.00,,,0.00,Wunderground v.1.15,2013-01-28 16:02:00,
2013-01-28 08:07:00,42.5,42.5,30.05,SE,130,0.0,0.0,100,0.00,,,0.00,Wunderground v.1.15,2013-01-28 16:07:00,
2013-01-28 08:12:00,42.5,42.5,30.05,SE,130,0.0,0.0,100,0.00,,,0.00,Wunderground v.1.15,2013-01-28 16:12:00,
2013-01-28 08:22:00,42.6,42.6,30.05,SE,130,0.0,0.0,100,0.00,,,0.00,Wunderground v.1.15,2013-01-28 16:22:00,
2013-01-28 08:27:00,42.8,42.8,30.05,SE,131,0.0,0.0,100,0.00,,,0.00,Wunderground v.1.15,2013-01-28 16:27:00,
2013-01-28 08:37:00,42.8,42.8,30.06,SE,131,0.0,0.0,100,0.00,,,0.00,Wunderground v.1.15,2013-01-28 16:37:00,
2013-01-28 08:47:00,42.9,42.9,30.06,SE,131,0.0,0.0,100,0.00,,,0.00,Wunderground v.1.15,2013-01-28 16:47:00,
2013-01-28 08:52:00,43.1,43.1,30.06,SE,130,0.0,0.0,100,0.00,,,0.00,Wunderground v.1.15,2013-01-28 16:52:00,
2013-01-28 09:02:00,43.2,43.2,30.06,SE,131,0.0,0.0,100,0.00,,,0.01,Wunderground v.1.15,2013-01-28 17:02:00,
2013-01-28 09:07:00,43.3,43.3,30.06,SE,131,0.0,0.0,100,0.00,,,0.01,Wunderground v.1.15,2013-01-28 17:07:00,
2013-01-28 09:12:00,43.3,43.3,30.06,SE,131,0.0,0.0,100,0.00,,,0.01,Wunderground v.1.15,2013-01-28 17:12:00,
2013-01-28 09:22:00,43.6,43.6,30.06,SE,131,0.0,0.0,100,0.00,,,0.01,Wunderground v.1.15,2013-01-28 17:22:00,
2013-01-28 09:32:00,43.6,43.6,30.06,SE,131,0.0,0.0,100,0.00,,,0.01,Wunderground v.1.15,2013-01-28 17:32:00,
2013-01-28 09:37:00,43.8,43.8,30.06,SE,131,0.0,0.0,100,0.00,,,0.01,Wunderground v.1.15,2013-01-28 17:37:00,
2013-01-28 09:47:00,43.8,43.8,30.06,SE,138,0.0,0.0,100,0.00,,,0.01,Wunderground v.1.15,2013-01-28 17:47:00,
2013-01-28 09:52:00,43.8,43.8,30.06,SE,138,0.0,0.0,100,0.00,,,0.01,Wunderground v.1.15,2013-01-28 17:52:00,
2013-01-28 10:02:00,43.9,43.9,30.06,SE,138,0.0,0.0,100,0.00,,,0.01,Wunderground v.1.15,2013-01-28 18:02:00,
2013-01-28 10:12:00,44.1,44.1,30.06,SE,138,0.0,0.0,100,0.00,,,0.01,Wunderground v.1.15,2013-01-28 18:12:00,
2013-01-28 10:22:00,44.2,44.2,30.06,SE,138,0.0,0.0,100,0.00,,,0.01,Wunderground v.1.15,2013-01-28 18:22:00,
2013-01-28 10:32:00,44.3,44.3,30.06,SE,138,0.0,0.0,100,0.00,,,0.01,Wunderground v.1.15,2013-01-28 18:32:00,
2013-01-28 10:37:00,44.5,44.5,30.06,SE,138,0.0,0.0,100,0.00,,,0.01,Wunderground v.1.15,2013-01-28 18:37:00,
2013-01-28 10:47:00,44.6,44.6,30.07,SE,138,0.0,0.0,100,0.00,,,0.01,Wunderground v.1.15,2013-01-28 18:47:00,
2013-01-28 10:57:00,44.8,44.8,30.07,SE,138,0.0,0.0,100,0.00,,,0.01,Wunderground v.1.15,2013-01-28 18:57:00,
2013-01-28 11:07:00,44.8,44.8,30.07,SE,138,0.0,0.0,100,0.00,,,0.01,Wunderground v.1.15,2013-01-28 19:07:00,
2013-01-28 11:17:00,44.8,44.8,30.07,SSE,147,0.0,1.0,100,0.00,,,0.01,Wunderground v.1.15,2013-01-28 19:17:00,
2013-01-28 11:27:00,44.5,44.5,30.07,SSE,150,1.0,1.0,100,0.00,,,0.01,Wunderground v.1.15,2013-01-28 19:27:00,
2013-01-28 11:32:00,44.5,44.5,30.06,SSE,148,1.0,1.0,100,0.00,,,0.01,Wunderground v.1.15,2013-01-28 19:32:00,
2013-01-28 11:42:00,44.5,44.5,30.06,SSE,150,0.0,0.0,100,0.00,,,0.01,Wunderground v.1.15,2013-01-28 19:42:00,
2013-01-28 11:52:00,44.3,44.3,30.06,SSE,154,1.0,1.0,100,0.00,,,0.01,Wunderground v.1.15,2013-01-28 19:52:00,
2013-01-28 11:57:00,44.2,44.2,30.06,SSE,154,1.0,1.0,100,0.00,,,0.01,Wunderground v.1.15,2013-01-28 19:57:00,
2013-01-28 12:07:00,44.2,44.2,30.06,SSE,161,1.0,2.0,100,0.00,,,0.02,Wunderground v.1.15,2013-01-28 20:07:00,
2013-01-28 12:17:00,44.2,44.2,30.06,SSE,155,1.0,1.0,100,0.00,,,0.02,Wunderground v.1.15,2013-01-28 20:17:00,
2013-01-28 12:27:00,44.2,44.2,30.06,South,172,1.0,5.0,100,0.00,,,0.02,Wunderground v.1.15,2013-01-28 20:27:00,
2013-01-28 12:32:00,44.3,44.3,30.06,SSE,161,1.0,1.0,100,0.00,,,0.03,Wunderground v.1.15,2013-01-28 20:32:00,
2013-01-28 12:42:00,44.2,44.2,30.06,SSE,161,0.0,1.0,100,0.00,,,0.03,Wunderground v.1.15,2013-01-28 20:42:00,
2013-01-28 12:52:00,44.2,44.2,30.05,SSE,164,1.0,1.0,100,0.00,,,0.04,Wunderground v.1.15,2013-01-28 20:52:00,
2013-01-28 12:57:00,44.2,44.2,30.05,WSW,241,1.0,2.0,100,0.00,,,0.04,Wunderground v.1.15,2013-01-28 20:57:00,
2013-01-28 13:07:00,44.2,44.2,30.05,SSE,154,2.0,2.0,100,0.04,,,0.05,Wunderground v.1.15,2013-01-28 21:07:00,
2013-01-28 13:17:00,44.2,44.2,30.04,South,182,1.0,1.0,100,0.04,,,0.05,Wunderground v.1.15,2013-01-28 21:17:00,
2013-01-28 13:27:00,44.3,44.3,30.04,SE,143,1.0,3.0,100,0.00,,,0.06,Wunderground v.1.15,2013-01-28 21:27:00,
2013-01-28 13:32:00,44.3,44.3,30.05,SSE,157,1.0,1.0,100,0.10,,,0.07,Wunderground v.1.15,2013-01-28 21:32:00,
2013-01-28 13:42:00,44.3,44.3,30.05,SSE,148,1.0,1.0,100,0.06,,,0.07,Wunderground v.1.15,2013-01-28 21:42:00,
2013-01-28 13:47:00,44.3,44.3,30.04,SSE,165,1.0,1.0,100,0.05,,,0.08,Wunderground v.1.15,2013-01-28 21:47:00,
2013-01-28 13:57:00,44.5,44.5,30.04,SSE,157,1.0,1.0,100,0.07,,,0.09,Wunderground v.1.15,2013-01-28 21:57:00,
2013-01-28 14:07:00,44.5,44.5,30.04,SE,144,0.0,1.0,100,0.04,,,0.09,Wunderground v.1.15,2013-01-28 22:07:00,
2013-01-28 14:17:00,44.5,44.5,30.04,SE,145,0.0,0.0,100,0.00,,,0.10,Wunderground v.1.15,2013-01-28 22:17:00,
2013-01-28 14:27:00,44.6,44.6,30.04,SE,138,0.0,0.0,100,0.10,,,0.11,Wunderground v.1.15,2013-01-28 22:27:00,
2013-01-28 14:37:00,45.4,45.4,30.04,WSW,247,1.0,1.0,100,0.06,,,0.12,Wunderground v.1.15,2013-01-28 22:37:00,
2013-01-28 14:42:00,46.0,46.0,30.04,SW,226,3.0,6.0,100,0.08,,,0.13,Wunderground v.1.15,2013-01-28 22:42:00,
2013-01-28 14:52:00,46.2,46.2,30.05,WNW,298,5.0,5.0,100,0.05,,,0.13,Wunderground v.1.15,2013-01-28 22:52:00,
2013-01-28 15:02:00,46.2,46.2,30.05,West,265,5.0,9.0,100,0.04,,,0.14,Wunderground v.1.15,2013-01-28 23:02:00,
2013-01-28 15:07:00,46.4,46.4,30.05,WSW,256,6.0,9.0,100,0.04,,,0.14,Wunderground v.1.15,2013-01-28 23:07:00,
2013-01-28 15:12:00,46.4,46.4,30.05,WSW,256,4.0,4.0,100,0.04,,,0.15,Wunderground v.1.15,2013-01-28 23:12:00,
2013-01-28 15:22:00,46.4,46.4,30.04,SW,227,3.0,4.0,100,0.04,,,0.15,Wunderground v.1.15,2013-01-28 23:22:00,
2013-01-28 15:27:00,46.4,46.4,30.04,WSW,258,3.0,4.0,100,0.00,,,0.15,Wunderground v.1.15,2013-01-28 23:27:00,
2013-01-28 15:37:00,46.2,46.2,30.04,SW,224,3.0,5.0,100,0.00,,,0.15,Wunderground v.1.15,2013-01-28 23:37:00,
2013-01-28 15:42:00,46.2,46.2,30.04,WSW,247,3.0,5.0,100,0.00,,,0.15,Wunderground v.1.15,2013-01-28 23:42:00,
2013-01-28 15:52:00,46.2,46.2,30.04,West,270,3.0,8.0,100,0.00,,,0.16,Wunderground v.1.15,2013-01-28 23:52:00,
2013-01-28 16:02:00,46.2,46.2,30.05,WSW,258,5.0,13.0,100,0.04,,,0.17,Wunderground v.1.15,2013-01-29 00:02:00,
2013-01-28 16:07:00,46.1,46.1,30.05,WNW,282,4.0,13.0,100,0.04,,,0.17,Wunderground v.1.15,2013-01-29 00:07:00,
2013-01-28 16:12:00,46.1,46.1,30.05,West,265,2.0,2.0,100,0.04,,,0.17,Wunderground v.1.15,2013-01-29 00:12:00,
2013-01-28 16:22:00,46.0,46.0,30.05,WNW,289,0.0,0.0,100,0.04,,,0.18,Wunderground v.1.15,2013-01-29 00:22:00,
2013-01-28 16:27:00,46.0,46.0,30.05,WNW,289,0.0,0.0,100,0.05,,,0.19,Wunderground v.1.15,2013-01-29 00:27:00,
2013-01-28 16:32:00,46.1,46.1,30.05,WNW,289,0.0,0.0,100,0.05,,,0.19,Wunderground v.1.15,2013-01-29 00:32:00,
2013-01-28 16:42:00,45.8,45.8,30.05,WNW,289,0.0,0.0,100,0.05,,,0.20,Wunderground v.1.15,2013-01-29 00:42:00,
2013-01-28 16:47:00,45.8,45.8,30.05,WNW,289,0.0,0.0,100,0.08,,,0.21,Wunderground v.1.15,2013-01-29 00:47:00,
2013-01-28 16:57:00,45.5,45.5,30.05,WSW,253,0.0,0.0,100,0.07,,,0.22,Wunderground v.1.15,2013-01-29 00:57:00,
2013-01-28 17:02:00,45.4,45.4,30.05,WSW,253,0.0,11.0,100,0.10,,,0.23,Wunderground v.1.15,2013-01-29 01:02:00,
2013-01-28 17:07:00,45.5,45.5,30.05,WSW,253,0.0,11.0,100,0.07,,,0.23,Wunderground v.1.15,2013-01-29 01:07:00,
2013-01-28 17:17:00,45.5,45.5,30.05,SSW,202,0.0,0.0,100,0.00,,,0.23,Wunderground v.1.15,2013-01-29 01:17:00,
2013-01-28 17:22:00,45.8,45.8,30.05,West,263,0.0,5.0,100,0.00,,,0.23,Wunderground v.1.15,2013-01-29 01:22:00,
2013-01-28 17:32:00,46.1,46.1,30.05,West,267,1.0,1.0,100,0.00,,,0.24,Wunderground v.1.15,2013-01-29 01:32:00,
2013-01-28 17:37:00,46.1,46.1,30.05,West,267,0.0,1.0,100,0.08,,,0.25,Wunderground v.1.15,2013-01-29 01:37:00,
2013-01-28 17:47:00,46.1,46.1,30.05,West,265,0.0,2.0,100,0.05,,,0.25,Wunderground v.1.15,2013-01-29 01:47:00,
2013-01-28 17:57:00,46.0,46.0,30.05,SW,216,0.0,0.0,100,0.00,,,0.25,Wunderground v.1.15,2013-01-29 01:57:00,
2013-01-28 18:02:00,46.0,46.0,30.05,SW,216,0.0,0.0,100,0.00,,,0.26,Wunderground v.1.15,2013-01-29 02:02:00,
2013-01-28 18:07:00,46.0,46.0,30.05,SW,216,0.0,0.0,100,0.00,,,0.26,Wunderground v.1.15,2013-01-29 02:07:00,
2013-01-28 18:17:00,46.1,46.1,30.05,SW,217,1.0,2.0,100,0.06,,,0.27,Wunderground v.1.15,2013-01-29 02:17:00,
2013-01-28 18:22:00,46.2,46.2,30.05,West,267,2.0,6.0,100,0.06,,,0.27,Wunderground v.1.15,2013-01-29 02:22:00,
2013-01-28 18:32:00,46.2,46.2,30.06,West,272,3.0,3.0,100,0.04,,,0.28,Wunderground v.1.15,2013-01-29 02:32:00,
2013-01-28 18:37:00,46.2,46.2,30.06,West,272,3.0,5.0,100,0.10,,,0.29,Wunderground v.1.15,2013-01-29 02:37:00,
2013-01-28 18:47:00,46.1,46.1,30.07,WSW,256,1.0,2.0,100,0.06,,,0.30,Wunderground v.1.15,2013-01-29 02:47:00,
2013-01-28 18:57:00,46.1,46.1,30.07,WSW,254,1.0,1.0,100,0.05,,,0.30,Wunderground v.1.15,2013-01-29 02:57:00,
2013-01-28 19:02:00,46.0,46.0,30.07,WSW,254,0.0,5.0,100,0.05,,,0.31,Wunderground v.1.15,2013-01-29 03:02:00,
2013-01-28 19:07:00,46.0,46.0,30.07,WSW,254,0.0,5.0,100,0.05,,,0.31,Wunderground v.1.15,2013-01-29 03:07:00,
2013-01-28 19:17:00,46.0,46.0,30.07,SSW,213,0.0,3.0,100,0.00,,,0.32,Wunderground v.1.15,2013-01-29 03:17:00,
2013-01-28 19:22:00,46.0,46.0,30.07,SSW,209,1.0,1.0,100,0.00,,,0.32,Wunderground v.1.15,2013-01-29 03:22:00,
2013-01-28 19:32:00,46.0,46.0,30.08,SSW,209,0.0,0.0,100,0.07,,,0.33,Wunderground v.1.15,2013-01-29 03:32:00,
2013-01-28 19:37:00,45.8,45.8,30.08,SSW,209,0.0,1.0,100,0.07,,,0.34,Wunderground v.1.15,2013-01-29 03:37:00,
2013-01-28 19:47:00,45.8,45.8,30.07,WSW,247,2.0,2.0,100,0.06,,,0.35,Wunderground v.1.15,2013-01-29 03:47:00,
2013-01-28 19:57:00,46.0,46.0,30.07,SW,217,2.0,3.0,100,0.06,,,0.36,Wunderground v.1.15,2013-01-29 03:57:00,
2013-01-28 20:02:00,45.8,45.8,30.07,SW,219,1.0,1.0,100,0.05,,,0.37,Wunderground v.1.15,2013-01-29 04:02:00,
2013-01-28 20:07:00,46.0,46.0,30.07,SW,217,1.0,1.0,100,0.05,,,0.37,Wunderground v.1.15,2013-01-29 04:07:00,
2013-01-28 20:17:00,45.8,45.8,30.07,SW,217,0.0,1.0,100,0.04,,,0.37,Wunderground v.1.15,2013-01-29 04:17:00,
2013-01-28 20:22:00,45.8,45.8,30.07,SW,217,0.0,0.0,100,0.00,,,0.38,Wunderground v.1.15,2013-01-29 04:22:00,
2013-01-28 20:32:00,45.8,45.8,30.07,WSW,247,1.0,1.0,100,0.06,,,0.39,Wunderground v.1.15,2013-01-29 04:32:00,
2013-01-28 20:42:00,46.0,46.0,30.07,WSW,239,2.0,2.0,100,0.05,,,0.39,Wunderground v.1.15,2013-01-29 04:42:00,
2013-01-28 20:47:00,46.0,46.0,30.08,SW,224,2.0,2.0,100,0.04,,,0.40,Wunderground v.1.15,2013-01-29 04:47:00,
2013-01-28 20:57:00,46.1,46.1,30.08,SW,229,3.0,3.0,100,0.04,,,0.40,Wunderground v.1.15,2013-01-29 04:57:00,
2013-01-28 21:07:00,46.1,46.1,30.08,SSW,198,1.0,3.0,100,0.05,,,0.41,Wunderground v.1.15,2013-01-29 05:07:00,
2013-01-28 21:17:00,46.0,46.0,30.08,SW,216,2.0,4.0,100,0.04,,,0.42,Wunderground v.1.15,2013-01-29 05:17:00,
2013-01-28 21:27:00,46.0,46.0,30.08,SW,216,0.0,1.0,100,0.04,,,0.42,Wunderground v.1.15,2013-01-29 05:27:00,
2013-01-28 21:32:00,46.0,46.0,30.08,SW,216,0.0,0.0,100,0.05,,,0.43,Wunderground v.1.15,2013-01-29 05:32:00,
2013-01-28 21:42:00,46.0,46.0,30.08,SW,216,0.0,0.0,100,0.04,,,0.43,Wunderground v.1.15,2013-01-29 05:42:00,
2013-01-28 21:52:00,45.8,45.8,30.08,SW,216,0.0,0.0,100,0.00,,,0.44,Wunderground v.1.15,2013-01-29 05:52:00,
2013-01-28 21:57:00,45.8,45.8,30.08,SW,216,0.0,0.0,100,0.00,,,0.44,Wunderground v.1.15,2013-01-29 05:57:00,
2013-01-28 22:07:00,45.8,45.8,30.08,SW,216,0.0,6.0,100,0.00,,,0.45,Wunderground v.1.15,2013-01-29 06:07:00,
2013-01-28 22:12:00,45.8,45.8,30.08,SW,216,0.0,0.0,100,0.00,,,0.45,Wunderground v.1.15,2013-01-29 06:12:00,
2013-01-28 22:22:00,45.8,45.8,30.08,SW,216,0.0,0.0,100,0.00,,,0.45,Wunderground v.1.15,2013-01-29 06:22:00,
2013-01-28 22:27:00,45.8,45.8,30.08,SSW,212,0.0,0.0,100,0.00,,,0.45,Wunderground v.1.15,2013-01-29 06:27:00,
2013-01-28 22:37:00,45.8,45.8,30.08,SSW,212,0.0,0.0,100,0.00,,,0.45,Wunderground v.1.15,2013-01-29 06:37:00,
2013-01-28 22:42:00,45.8,45.8,30.08,SSW,212,0.0,0.0,100,0.00,,,0.45,Wunderground v.1.15,2013-01-29 06:42:00,
2013-01-28 22:52:00,45.8,45.8,30.09,SSW,212,0.0,0.0,100,0.00,,,0.46,Wunderground v.1.15,2013-01-29 06:52:00,
2013-01-28 22:57:00,45.8,45.8,30.09,SSW,192,0.0,0.0,100,0.00,,,0.46,Wunderground v.1.15,2013-01-29 06:57:00,
2013-01-28 23:07:00,45.7,45.7,30.10,South,184,0.0,0.0,100,0.00,,,0.46,Wunderground v.1.15,2013-01-29 07:07:00,
2013-01-28 23:12:00,45.7,45.7,30.10,South,184,0.0,0.0,100,0.00,,,0.46,Wunderground v.1.15,2013-01-29 07:12:00,
2013-01-28 23:22:00,45.8,45.8,30.10,South,184,0.0,0.0,100,0.00,,,0.46,Wunderground v.1.15,2013-01-29 07:22:00,
2013-01-28 23:27:00,46.0,46.0,30.10,South,184,0.0,0.0,100,0.00,,,0.47,Wunderground v.1.15,2013-01-29 07:27:00,
2013-01-28 23:37:00,46.1,46.1,30.10,SW,229,0.0,1.0,100,0.00,,,0.47,Wunderground v.1.15,2013-01-29 07:37:00,
2013-01-28 23:42:00,46.1,46.1,30.10,SW,229,0.0,0.0,100,0.00,,,0.47,Wunderground v.1.15,2013-01-29 07:42:00,
2013-01-28 23:52:00,46.2,46.2,30.11,SW,229,0.0,0.0,100,0.00,,,0.47,Wunderground v.1.15,2013-01-29 07:52:00,